This is the latest recevied weather packets stored in our database for station/object SP2WM. If no packets are shown the sender has not sent any weather packets the latest 10 day(s).
| Time | Temp. | Humidity | Pressure | Rain* | Wind** | Luminosity | Snow |
|---|---|---|---|---|---|---|---|
| 1778069434 | 20° C | 59% | 1002.5 hPa | 0 mm | - | - | - |
| 1778068830 | 20.56° C | 58% | 1002.5 hPa | 0 mm | - | - | - |
| 1778068230 | 20.56° C | 59% | 1002.4 hPa | 0 mm | - | - | - |
| 1778067637 | 20.56° C | 59% | 1002.3 hPa | 0 mm | - | - | - |
| 1778067033 | 21.11° C | 58% | 1002.3 hPa | 0 mm | - | - | - |
| 1778066433 | 21.11° C | 59% | 1002 hPa | 0 mm | - | - | - |
| 1778065840 | 20.56° C | 58% | 1002 hPa | 0 mm | - | - | - |
| 1778065240 | 20° C | 60% | 1002 hPa | 0 mm | - | - | - |
| 1778064638 | 20.56° C | 60% | 1001.9 hPa | 0 mm | - | - | - |
| 1778064029 | 20.56° C | 60% | 1002 hPa | 0 mm | - | - | - |
| 1778063427 | 20° C | 59% | 1001.9 hPa | 0 mm | - | - | - |
| 1778062828 | 20.56° C | 61% | 1001.8 hPa | 0 mm | - | - | - |
| 1778062235 | 20° C | 62% | 1001.8 hPa | 0 mm | - | - | - |
| 1778061674 | 20° C | 61% | 1001.8 hPa | 0 mm | - | - | - |
| 1778061027 | 20° C | 62% | 1001.7 hPa | 0 mm | - | - | - |
| 1778060435 | 19.44° C | 63% | 1001.7 hPa | 0 mm | - | - | - |
| 1778059833 | 19.44° C | 63% | 1001.6 hPa | 0 mm | - | - | - |
| 1778059235 | 18.89° C | 65% | 1001.7 hPa | 0 mm | - | - | - |
| 1778058643 | 18.33° C | 65% | 1001.7 hPa | 0 mm | - | - | - |
| 1778058042 | 18.33° C | 66% | 1001.7 hPa | 0 mm | - | - | - |
| 1778057438 | 17.78° C | 66% | 1001.7 hPa | 0 mm | - | - | - |
| 1778056828 | 17.78° C | 65% | 1001.7 hPa | 0 mm | - | - | - |
| 1778055636 | 17.78° C | 64% | 1001.9 hPa | 0 mm | - | - | - |
| 1778055043 | 18.33° C | 63% | 1001.6 hPa | 0 mm | - | - | - |
| 1778054443 | 18.33° C | 64% | 1001.5 hPa | 0 mm | - | - | - |
* Rain latest hour (hover to see other rain measurements)
** Current wind speed in m/s (hover to see current wind gust speed)